Tracking 29932 objects as of 3-Dec-2024
HD Live streaming from Space Station
objects crossing your sky now

STARLINK-31443

Track STARLINK-31443 now!
10-day predictions
STARLINK-31443 is classified as:


NORAD ID: 59393
Int'l Code: 2024-062V
Perigee: 454.0 km
Apogee: 454.7 km
Inclination: 53.2 °
Period: 93.5 minutes
Semi major axis: 6825 km
RCS: Unknown
Launch date: April 2, 2024
Source: United States (US)
Launch site: AIR FORCE WESTERN TEST RANGE (AFWTR)
Your satellite tracking list
Your tracking list is empty




NASA's NSSDC Master Catalog

Two Line Element Set (TLE):
1 59393U 24062V   24338.83955217  .00002090  00000-0  62176-4 0  9990
2 59393  53.1628 226.1076 0000469  48.0129 312.0916 15.39628123 39254
Source of the keplerian elements: AFSPC